Flag for India Weather past 2 weeks in Chennai, Tamil Nadu, India

Now
88 °F

Passing clouds.


Feels Like: 98 °F
Forecast: 81 / 93 °F
Wind: 12 mph from Southeast

Location: Madras / Minambakkam

Current Time: Mar 31, 2015 at 5:29:36 PM

Latest Report: Mar 31, 2015 at 4:40 PM


Visibility: 5 mi

Pressure: 29.77 "Hg

Humidity: 66%

Dew point: 75 °F

Location of ChennaiLocation

Historic Weather in Chennai — Graph

°F

Chennai temperature yesterday

Maximum temperature yesterday: 93 °F (at 12:40 PM)
Minimum temperature yesterday: 79 °F (at 4:40 AM)
Average temperature yesterday: 86 °F

Past Weeks' High & Low Weather Summary

 TemperatureHumidityPressure
High99 °F (Mar 22, 12:40 PM)94% (Mar 17, 4:40 AM)29.98 "Hg (Mar 17, 4:40 AM)
Low73 °F (Mar 17, 4:40 AM)27% (Mar 21, 1:40 PM)29.74 "Hg (Mar 23, 3:40 PM)
Average85 °F71%29.86 "Hg
* Reported Mar 16 3:40 PM — Mar 31 3:40 PM, Chennai, Weather by CustomWeather, © 2015

Note: Actual official high and low records may vary slightly from our data, if they occured in-between our weather recording intervals... More about our weather records

Advertising

Chennai weather history for previous 24 hours

 ConditionsComfort  
Time TempWeatherWind HumidityBarometerVisibility
3:40 PM
Tue, Mar 31
91 °FPassing clouds.14 mph56%29.77 "Hg5 mi
2:40 PM93 °FPassing clouds.13 mph53%29.80 "Hg5 mi
1:40 PM93 °FPassing clouds.15 mph53%29.80 "Hg5 mi
12:40 PM93 °FPassing clouds.9 mph53%29.83 "Hg5 mi
11:40 AM91 °FPassing clouds.14 mph59%29.86 "Hg5 mi
10:40 AM91 °FPassing clouds.14 mph59%29.89 "Hg5 mi
9:40 AM90 °FScattered clouds.9 mph67%29.89 "Hg5 mi
8:40 AM86 °FScattered clouds.3 mph75%29.89 "Hg4 mi
7:40 AM84 °FFog.3 mph84%29.89 "Hg2 mi
6:40 AM81 °FFog.No wind89%29.86 "Hg2 mi
4:40 AM82 °FPassing clouds.3 mph84%29.80 "Hg4 mi
3:40 AM84 °FPassing clouds.No wind79%29.80 "Hg4 mi
2:40 AM84 °FPassing clouds.5 mph79%29.80 "Hg4 mi
1:40 AM84 °FPassing clouds.7 mph79%29.80 "Hg4 mi
12:40 AM84 °FPassing clouds.7 mph79%29.83 "Hg4 mi
11:40 PM
Mon, Mar 30
84 °FPassing clouds.9 mph79%29.86 "Hg4 mi
10:40 PM84 °FPassing clouds.12 mph79%29.86 "Hg4 mi
9:40 PM84 °FPassing clouds.12 mph79%29.86 "Hg4 mi
8:40 PM84 °FPassing clouds.9 mph74%29.83 "Hg4 mi
7:40 PM84 °FPassing clouds.14 mph79%29.80 "Hg4 mi
6:40 PM86 °FPassing clouds.16 mph70%29.80 "Hg4 mi
5:40 PM88 °FPassing clouds.9 mph66%29.77 "Hg4 mi
Weather by CustomWeather, © 2015

See weather overviewHow to use our weather pages